This demonstration page uses our WeatherBlox Daily Observations layout. Learn more.

Left ArrowRight Arrow

39.95238, -75.16362

Hourly Observations for April 26, 2023

Temp ( °F °C ) Dew Point ( °F °C ) Humidity (%) Winds ( mph kmh ) Pressure ( in mb ) Visibility ( mi km ) Precip ( " mm )
12:54 am 00:54 Clear 46 7.8 28 -2.2 49 49 Calm 30.22 1023 10 16 0.00 0.00
1:54 am 01:54 Mostly Clear 45 7.2 38 3.3 76 76 Calm 30.21 1023 10 16 0.00 0.00
2:54 am 02:54 Cloudy 43 6.1 34 1.1 70 70 NNE 9 15 30.21 1023 10 16 0.00 0.00
3:54 am 03:54 Mostly Cloudy 44 6.7 35 1.7 70 70 NNE 3 6 30.20 1023 10 16 0.00 0.00
4:54 am 04:54 Mostly Cloudy 45 7.2 35 1.7 68 68 Calm 30.21 1023 10 16 0.00 0.00
5:54 am 05:54 Mostly Cloudy 44 6.7 34 1.1 67 67 NNW 3 6 30.22 1024 10 16 0.00 0.00
6:54 am 06:54 Mostly Cloudy 47 8.3 33 0.6 58 58 N 3 6 30.24 1024 10 16 0.00 0.00
7:54 am 07:54 Mostly Cloudy 51 10.6 37 2.8 58 58 E 6 9 30.24 1024 10 16 0.00 0.00
8:54 am 08:54 Mostly Cloudy 53 11.7 33 0.6 46 46 ESE 7 11 30.24 1024 10 16 0.00 0.00
9:54 am 09:54 Mostly Cloudy 54 12.2 31 -0.6 41 41 Calm 30.25 1024 10 16 0.00 0.00
10:54 am 10:54 Mostly Cloudy 57 13.9 30 -1.1 35 35 ESE 8 13 30.23 1024 10 16 0.01 0.13
11:43 am 11:43 Cloudy with Light Rain 55 12.8 35 1.7 47 47 W 8 13 30.24 1024 7 11 0.01 0.13
11:54 am 11:54 Cloudy with Light Rain 52 11.1 37 2.8 57 57 VRB 7 11 30.23 1024 10 16 0.01 0.25
12:54 pm 12:54 Mostly Cloudy with Light Rain 54 12.2 39 3.9 57 57 ESE 3 6 30.21 1023 10 16 0.02 0.51
1:54 pm 13:54 Partly Cloudy 58 14.4 41 5 53 53 NNE 5 7 30.19 1022 10 16 0.01 0.13
2:54 pm 14:54 Mostly Cloudy 61 16.1 40 4.4 46 46 ESE 5 7 30.17 1022 10 16 0.00 0.00
3:54 pm 15:54 Mostly Cloudy 62 16.7 40 4.4 44 44 E 8 13 30.14 1021 10 16 0.00 0.00
4:54 pm 16:54 Mostly Cloudy 61 16.1 39 3.9 44 44 VRB 3 6 30.12 1020 10 16 0.01 0.13
5:46 pm 17:46 Mostly Cloudy with Light Rain 57 13.9 42 5.6 57 57 NW 26 43 30.17 1022 10 16 0.01 0.13
5:49 pm 17:49 Mostly Cloudy with Light Rain 55 13 45 7 67 67 WNW 23 37 30.17 1022 4 6 0.01 0.13
5:59 pm 17:59 Mostly Cloudy with Rain 52 11.1 48 8.9 86 86 W 10 17 30.18 1022 2 3 0.01 0.25
6:08 pm 18:08 Mostly Cloudy with Light Rain 54 12.2 47 8.3 77 77 WNW 9 15 30.18 1022 7 11 0.02 0.51
6:54 pm 18:54 Mostly Cloudy 52 11.1 47 8.3 83 83 NE 6 9 30.19 1022 10 16 0.02 0.51
7:54 pm 19:54 Mostly Cloudy 52 11.1 46 7.8 80 80 E 9 15 30.19 1022 10 16 0.00 0.00
8:54 pm 20:54 Mostly Cloudy with Light Rain 52 11.1 47 8.3 83 83 SE 7 11 30.21 1023 9 14 0.01 0.25
9:54 pm 21:54 Cloudy 51 10.6 45 7.2 79 79 SE 8 13 30.21 1023 9 14 0.01 0.13
10:54 pm 22:54 Mostly Cloudy 50 10 42 5.6 74 74 SE 8 13 30.19 1022 9 14 0.00 0.00
11:54 pm 23:54 Cloudy 50 10 41 5 71 71 ESE 6 9 30.18 1022 8 13 0.00 0.00

Powered by Vaisala Xweather